Regional Weather Roundup
Issued by NWS Jackson, KY

Home | Current Version | Previous Version | Graphics & Text | Print | Product List | Glossary On
Versions: 1 2 3 4 5 6 7 8 9 10 11 12 13 14 15 16 17 18 19 20 21 22 23 24 25 26 27 28 29 30 31 32 33 34 35 36 37 38 39 40 41 42 43 44 45 46 47 48 49 50
000
ASUS43 KJKL 301410
RWRJKL

EAST KENTUCKY HOURLY WEATHER ROUNDUP
NATIONAL WEATHER SERVICE JACKSON KY
1000 AM EDT SAT MAY 30 2015

NOTE: "FAIR" INDICATES FEW OR NO CLOUDS BELOW 12,000 FEET WITH
NO SIGNIFICANT WEATHER AND/OR OBSTRUCTIONS TO VISIBILITY.

* THESE REPORTS ARE NOT UNDER NWS QUALITY CONTROL AND MAY NOT
  REPORT WEATHER SUCH AS PRECIPITATION AND FOG.

KYZ079-080-083-085-087-088-110-112-115-119-120-301500
...EASTERN KENTUCKY...

CITY           SKY/WX    TMP DP  RH WIND       PRES   REMARKS
JACKSON        PTSUNNY   72  63  73 CALM      30.18S
LONDON         PTSUNNY   74  62  66 S9        30.17S
SOMERSET*      MOSUNNY   73  63  68 S8        30.16S
MONTICELLO*    MOSUNNY   76  65  68 S7        30.17S
MIDDLESBORO*   CLOUDY    76  64  66 SE6       30.20S
HARLAN APT*    SUNNY     73  63  68 MISG      30.21F
HAZARD APT*    PTSUNNY   77  63  61 S9        30.18S
BLACK MTN*       N/A     66  59  77 E1          N/A
PIKEVILLE APT* PTSUNNY   73  64  73 SE6       30.19F
BIG SANDY*     CLOUDY    75  66  75 S6        30.18S
MOREHEAD APT*  MOSUNNY   73  66  78 S9        30.16S
$$

KYZ035-036-041-042-044-050-067-078-099-301500
...CENTRAL KENTUCKY...

CITY           SKY/WX    TMP DP  RH WIND       PRES   REMARKS
MT STERLING*   MOSUNNY   75  66  73 SW10      30.15S
FLEMING/MASON* PTSUNNY   77  68  73 S9        30.13S
DANVILLE*      PTSUNNY   77  64  65 S10G16    30.14S
RICHMOND*      MOSUNNY   75  63  64 SW9       30.14R
LEXINGTON      PTSUNNY   75  66  73 S10       30.12S
FRANKFORT      PTSUNNY   77  65  66 S9        30.09S
$$

KYZ091>093-OHZ055-061-077-WVZ005-015-034-035-042-301500
...SOUTHERN OHIO/WEST VIRGINIA...

CITY           SKY/WX    TMP DP  RH WIND       PRES   REMARKS
COVINGTON      MOSUNNY   76  67  73 S7        30.09S
COLUMBUS       PTSUNNY   74  67  78 S10       30.09S
DAYTON         PTSUNNY   78  69  73 SW13      30.09S
WILMINGTON     CLOUDY    72  65  78 SW12      30.10R
HUNTINGTON     MOSUNNY   73  67  81 S7        30.14S
CHARLESTON     PTSUNNY   73  66  78 SE5       30.16S
PINEVILLE*     CLOUDY    72  67  85 MISG      30.27S
BECKLEY        SUNNY     74  60  61 SW8       30.25S
BLUEFIELD      SUNNY     75  61  61 VRB3      30.28S
$$

VAZ002-007-008-TNZ017-027-036-066-071-301500
...SOUTHWEST VIRGINIA/EAST TENNESSEE...

CITY           SKY/WX    TMP DP  RH WIND       PRES   REMARKS
WISE*          SUNNY     73  55  53 S6        30.27S
JONESVILLE*    SUNNY     75  64  69 E5        30.23F
ABINGDON*      SUNNY     76  64  65 E5        30.24F
BRISTOL        MOSUNNY   79  63  57 S3        30.22S
KNOXVILLE      MOSUNNY   74  63  68 NW3       30.17F
OAK RIDGE      MOSUNNY   78  63  59 S5        30.19S
CROSSVILLE     SUNNY     74  61  63 S6        30.20R
NASHVILLE      PTSUNNY   79  67  66 SW7       30.10S
$$

...KEY TO REMARKS...
VSB - VISIBILITY IN MILES
WCI - WIND CHILL INDEX
HX  - HEAT INDEX

$$


USA.gov is the U.S. government's official web portal to all federal, state and local government web resources and services.